When you browse on this site, cookies collect data to enhance your experience and personalize the content and advertising you see.
Visit our Privacy Policy to learn more. By continuing to use the site, you agree to this use of cookies and data.
  • In United Kingdom
  • List of Countries
  • For 7 days
  • Water Temperature
  • Satellite Maps
  • Weather Map
  • Weather Widgets
  • user-avatar
    Login

    Hourly Weather Camopi

    Today, 23 July, Tuesday

    Time Temperature Precipitation Wind Pressure Humidity
    00:00 +20°C° 0 mm 0 mps 750 mmHg 98%
    01:00 +20°C° 0 mm 0 mps 750 mmHg 98%
    02:00 +20°C° 0 mm 0 mps 750 mmHg 98%
    03:00 +20°C° 0 mm 0 mps 750 mmHg 99%
    04:00 +20°C° 0 mm 0 mps 750 mmHg 99%
    05:00 +20°C° 0 mm 0 mps 750 mmHg 99%
    06:00 +20°C° 0 mm 0 mps 750 mmHg 99%
    07:00 +22°C° 0 mm 0 mps 750 mmHg 94%
    08:00 +26°C° 0 mm 1 mps 751 mmHg 90%
    09:00 +27°C° 0 mm 1 mps 751 mmHg 85%
    10:00 +29°C° 0.2 mm 1 mps 751 mmHg 79%
    11:00 +30°C° 0.2 mm 1 mps 751 mmHg 73%
    12:00 +31°C° 0.2 mm 1 mps 750 mmHg 67%
    13:00 +31°C° 1.2 mm 1 mps 750 mmHg 72%
    14:00 +30°C° 1.2 mm 1 mps 749 mmHg 76%
    15:00 +30°C° 1.2 mm 1 mps 749 mmHg 81%
    16:00 +29°C° 0.8 mm 1 mps 749 mmHg 86%
    17:00 +28°C° 0.8 mm 1 mps 748 mmHg 91%
    18:00 +27°C° 0.8 mm 1 mps 748 mmHg 96%
    19:00 +26°C° 0.1 mm 1 mps 749 mmHg 96%
    20:00 +23°C° 0.1 mm 0 mps 749 mmHg 97%
    21:00 +22°C° 0.1 mm 0 mps 750 mmHg 97%
    22:00 +22°C° 0 mm 0 mps 750 mmHg 98%
    23:00 +22°C° 0 mm 0 mps 750 mmHg 98%

    Tomorrow, 24 July, Wednesday

    Time Temperature Precipitation Wind Pressure Humidity
    00:00 +22°C° 0 mm 0 mps 751 mmHg 99%
    01:00 +21°C° 0 mm 0 mps 750 mmHg 99%
    02:00 +21°C° 0 mm 0 mps 750 mmHg 99%
    03:00 +21°C° 0 mm 0 mps 749 mmHg 99%
    04:00 +21°C° 0 mm 0 mps 749 mmHg 99%
    05:00 +21°C° 0 mm 0 mps 749 mmHg 99%
    06:00 +21°C° 0 mm 0 mps 749 mmHg 99%
    07:00 +22°C° 0 mm 0 mps 750 mmHg 96%
    08:00 +23°C° 0 mm 0 mps 750 mmHg 92%
    09:00 +27°C° 0 mm 1 mps 751 mmHg 89%
    10:00 +28°C° 0.3 mm 1 mps 751 mmHg 82%
    11:00 +29°C° 0.3 mm 1 mps 751 mmHg 74%
    12:00 +31°C° 0.3 mm 2 mps 751 mmHg 67%
    13:00 +31°C° 0.5 mm 2 mps 750 mmHg 67%
    14:00 +31°C° 0.5 mm 2 mps 749 mmHg 68%
    15:00 +31°C° 0.5 mm 2 mps 749 mmHg 69%
    16:00 +29°C° 0.6 mm 1 mps 749 mmHg 78%
    17:00 +28°C° 0.6 mm 1 mps 749 mmHg 86%
    18:00 +27°C° 0.6 mm 1 mps 749 mmHg 94%
    19:00 +26°C° 0.2 mm 1 mps 749 mmHg 96%
    20:00 +25°C° 0.2 mm 1 mps 749 mmHg 97%
    21:00 +24°C° 0.2 mm 1 mps 750 mmHg 98%
    22:00 +24°C° 0 mm 1 mps 750 mmHg 98%
    23:00 +21°C° 0 mm 0 mps 750 mmHg 98%

    Day after tomorrow, 25 July, Thursday

    Time Temperature Precipitation Wind Pressure Humidity
    00:00 +21°C° 0 mm 0 mps 750 mmHg 98%
    01:00 +21°C° 0 mm 0 mps 750 mmHg 98%
    02:00 +21°C° 0 mm 0 mps 749 mmHg 99%
    03:00 +20°C° 0 mm 0 mps 749 mmHg 99%
    04:00 +20°C° 0 mm 0 mps 749 mmHg 99%
    05:00 +20°C° 0 mm 0 mps 749 mmHg 99%
    06:00 +20°C° 0 mm 0 mps 749 mmHg 99%
    07:00 +22°C° 0 mm 0 mps 750 mmHg 95%
    08:00 +23°C° 0 mm 0 mps 750 mmHg 91%
    09:00 +27°C° 0 mm 1 mps 751 mmHg 88%
    10:00 +28°C° 0.1 mm 1 mps 751 mmHg 78%
    11:00 +30°C° 0.1 mm 1 mps 751 mmHg 68%
    12:00 +31°C° 0.1 mm 1 mps 751 mmHg 59%
    13:00 +30°C° 1 mm 1 mps 750 mmHg 70%
    14:00 +29°C° 1 mm 1 mps 749 mmHg 82%
    15:00 +28°C° 1 mm 1 mps 748 mmHg 93%
    16:00 +27°C° 1 mm 1 mps 749 mmHg 94%
    17:00 +27°C° 1 mm 1 mps 749 mmHg 95%
    18:00 +26°C° 1 mm 1 mps 749 mmHg 96%
    19:00 +25°C° 0.2 mm 1 mps 749 mmHg 97%
    20:00 +25°C° 0.2 mm 1 mps 750 mmHg 97%
    21:00 +24°C° 0.2 mm 1 mps 750 mmHg 97%
    22:00 +24°C° 0 mm 1 mps 750 mmHg 98%
    23:00 +21°C° 0 mm 0 mps 750 mmHg 98%

    26 July, Friday

    Time Temperature Precipitation Wind Pressure Humidity
    00:00 +21°C° 0 mm 0 mps 751 mmHg 98%
    01:00 +21°C° 0 mm 0 mps 750 mmHg 98%
    02:00 +21°C° 0 mm 0 mps 749 mmHg 98%
    03:00 +20°C° 0 mm 0 mps 749 mmHg 98%
    04:00 +20°C° 0 mm 0 mps 749 mmHg 98%
    05:00 +20°C° 0 mm 0 mps 749 mmHg 98%
    06:00 +20°C° 0 mm 0 mps 749 mmHg 98%
    07:00 +21°C° 0 mm 0 mps 750 mmHg 94%
    08:00 +25°C° 0 mm 1 mps 750 mmHg 90%
    09:00 +26°C° 0 mm 1 mps 751 mmHg 85%
    10:00 +29°C° 0 mm 1 mps 751 mmHg 73%
    11:00 +31°C° 0 mm 1 mps 751 mmHg 61%
    12:00 +33°C° 0 mm 1 mps 751 mmHg 49%
    13:00 +34°C° 0 mm 1 mps 750 mmHg 49%
    14:00 +34°C° 0 mm 1 mps 749 mmHg 48%
    15:00 +34°C° 0 mm 1 mps 748 mmHg 48%
    16:00 +32°C° 0.8 mm 1 mps 748 mmHg 63%
    17:00 +29°C° 0.8 mm 1 mps 748 mmHg 78%
    18:00 +27°C° 0.8 mm 1 mps 748 mmHg 93%
    19:00 +26°C° 0.5 mm 1 mps 749 mmHg 95%
    20:00 +25°C° 0.5 mm 1 mps 749 mmHg 96%
    21:00 +24°C° 0.5 mm 1 mps 750 mmHg 98%
    22:00 +24°C° 0.1 mm 1 mps 750 mmHg 98%
    23:00 +24°C° 0.1 mm 1 mps 751 mmHg 98%

    27 July, Saturday

    Time Temperature Precipitation Wind Pressure Humidity
    00:00 +24°C° 0.1 mm 1 mps 751 mmHg 99%
    01:00 +23°C° 0 mm 1 mps 750 mmHg 99%
    02:00 +21°C° 0 mm 0 mps 750 mmHg 99%
    03:00 +21°C° 0 mm 0 mps 749 mmHg 99%
    04:00 +21°C° 0 mm 0 mps 750 mmHg 99%
    05:00 +21°C° 0 mm 0 mps 750 mmHg 99%
    06:00 +21°C° 0 mm 0 mps 750 mmHg 99%
    07:00 +24°C° 0 mm 1 mps 750 mmHg 95%
    08:00 +26°C° 0 mm 1 mps 751 mmHg 92%
    09:00 +27°C° 0 mm 1 mps 751 mmHg 88%
    10:00 +29°C° 0.1 mm 1 mps 751 mmHg 81%
    11:00 +30°C° 0.1 mm 2 mps 751 mmHg 73%
    12:00 +32°C° 0.1 mm 2 mps 751 mmHg 65%
    13:00 +31°C° 1.5 mm 2 mps 750 mmHg 73%
    14:00 +30°C° 1.5 mm 1 mps 749 mmHg 81%
    15:00 +30°C° 1.5 mm 1 mps 749 mmHg 89%
    16:00 +29°C° 0.8 mm 1 mps 749 mmHg 91%
    17:00 +28°C° 0.8 mm 1 mps 749 mmHg 93%
    18:00 +25°C° 0.8 mm 0 mps 749 mmHg 95%
    19:00 +26°C° 0 mm 1 mps 749 mmHg 96%
    20:00 +25°C° 0 mm 1 mps 750 mmHg 97%
    21:00 +24°C° 0 mm 1 mps 750 mmHg 98%
    22:00 +24°C° 0 mm 1 mps 750 mmHg 98%
    23:00 +24°C° 0 mm 1 mps 751 mmHg 99%

    28 July, Sunday

    Time Temperature Precipitation Wind Pressure Humidity
    00:00 +22°C° 0 mm 0 mps 751 mmHg 99%
    01:00 +22°C° 0 mm 0 mps 751 mmHg 99%
    02:00 +22°C° 0 mm 0 mps 750 mmHg 99%
    03:00 +22°C° 0 mm 0 mps 750 mmHg 99%
    04:00 +21°C° 0 mm 0 mps 750 mmHg 99%
    05:00 +21°C° 0 mm 0 mps 750 mmHg 99%
    06:00 +21°C° 0 mm 0 mps 750 mmHg 99%
    07:00 +22°C° 0 mm 0 mps 750 mmHg 96%
    08:00 +25°C° 0 mm 1 mps 751 mmHg 94%
    09:00 +27°C° 0 mm 1 mps 751 mmHg 92%
    10:00 +28°C° 0.1 mm 1 mps 751 mmHg 82%
    11:00 +30°C° 0.1 mm 2 mps 751 mmHg 72%
    12:00 +32°C° 0.1 mm 2 mps 751 mmHg 62%
    13:00 +31°C° 0.7 mm 2 mps 750 mmHg 67%
    14:00 +31°C° 0.7 mm 2 mps 750 mmHg 71%
    15:00 +30°C° 0.7 mm 2 mps 749 mmHg 75%
    16:00 +29°C° 0.5 mm 1 mps 749 mmHg 81%
    17:00 +28°C° 0.5 mm 1 mps 749 mmHg 88%
    18:00 +27°C° 0.5 mm 1 mps 749 mmHg 94%
    19:00 +26°C° 0.3 mm 1 mps 749 mmHg 95%
    20:00 +25°C° 0.3 mm 1 mps 750 mmHg 96%
    21:00 +24°C° 0.3 mm 1 mps 750 mmHg 98%
    22:00 +24°C° 0 mm 1 mps 750 mmHg 98%
    23:00 +24°C° 0 mm 1 mps 751 mmHg 98%
    Show more